Terminal Aerodrome Forecast
Issued by NWS

Home | Current Version | Previous Version | Text Only | Print | Product List | Glossary On
Versions: 1 2 3 4 5 6 7 8 9 10 11 12 13 14 15 16 17 18 19 20
000
FTUS42 KFFC 202300
TAFRYY
TAF
KRYY 202327Z 2100/2124 06003KT P6SM FEW250
     FM211700 26005KT P6SM SCT250
      AMD NOT SKED 2104/2112=

USA.gov is the U.S. government's official web portal to all federal, state and local government web resources and services.